Le nostre stazioni meteo in Italia

Pubblicità
Il mio iltempo24.it
Catanzaro, Italia (16365): Temperatura & dewpoint: 31.05.2020 11:00:00 - 06.06.2020 11:00:00 (CEST)Catanzaro, Italia (16365): velocità del vento: 31.05.2020 11:00:00 - 06.06.2020 11:00:00 (CEST)Catanzaro, Italia (16365): direzione del vento: 31.05.2020 11:00:00 - 06.06.2020 11:00:00 (CEST)Catanzaro, Italia (16365): reduced air pressure: 31.05.2020 11:00:00 - 06.06.2020 11:00:00 (CEST)Catanzaro, Italia (16365): precipitazioni: 31.05.2020 11:00:00 - 06.06.2020 11:00:00 (CEST)
Data & Tempo tt [°C] td [°C] ff [km/h] ff [kn] dd ppp [hPa] rr [mm]
06.06.2020 11:00:00 - - - - - - -
06.06.2020 10:00:00 17,9 13,5 15 8 O 1006,1 -
06.06.2020 09:00:00 16,2 13,4 24 13 NO 1005,9 -
06.06.2020 08:00:00 14,9 12,9 21 11 ONO 1005,5 -
06.06.2020 07:00:00 14,7 13,0 22 12 O 1004,4 -
06.06.2020 06:00:00 14,5 12,7 18 10 O 1003,7 -
06.06.2020 05:00:00 14,7 12,0 22 12 ONO 1002,6 -
06.06.2020 04:00:00 15,4 9,7 28 15 ONO 1002,2 -
06.06.2020 03:00:00 14,9 10,3 16 9 ONO 1001,7 -
06.06.2020 02:00:00 14,5 12,5 15 8 ONO 1002,1 -
06.06.2020 01:00:00 14,2 12,6 37 20 ONO 1002,7 -
06.06.2020 00:00:00 13,9 12,4 16 9 ONO 1003,3 -
05.06.2020 23:00:00 13,7 12,6 16 9 ONO 1003,6 -
05.06.2020 22:00:00 13,7 12,2 15 8 ONO 1003,1 -
05.06.2020 21:00:00 13,3 12,0 21 11 NO 1002,8 -
05.06.2020 20:00:00 13,3 11,2 15 8 ONO 1003,0 -
05.06.2020 19:00:00 15,1 9,4 21 11 NNO 1001,7 -
05.06.2020 18:00:00 14,4 11,1 15 8 ESE 1004,8 -
05.06.2020 17:00:00 16,3 14,6 11 6 ENE 1004,8 -
05.06.2020 16:00:00 17,1 14,5 5 3 ESE 1005,7 -
05.06.2020 15:00:00 17,7 14,1 5 3 ESE 1006,7 -
05.06.2020 14:00:00 17,9 14,3 4 2 E 1006,1 -
05.06.2020 13:00:00 17,2 15,1 0 0 N 1008,4 -
05.06.2020 12:00:00 16,6 14,9 5 3 S 1009,8 -
05.06.2020 11:00:00 16,7 15,3 5 3 SSE 1008,9 -
05.06.2020 10:00:00 16,5 16,4 18 10 ESE 1008,8 -
05.06.2020 09:00:00 16,4 15,0 5 3 E 1009,6 -
05.06.2020 08:00:00 15,9 14,7 2 1 NNE 1009,5 -
05.06.2020 07:00:00 15,9 13,8 2 1 SE 1008,4 -
05.06.2020 06:00:00 17,1 12,0 9 5 OSO 1009,2 -
05.06.2020 05:00:00 16,9 13,3 11 6 ONO 1009,5 -
05.06.2020 04:00:00 16,4 13,8 0 0 N 1009,9 -
05.06.2020 03:00:00 16,4 14,2 2 1 NE 1009,3 -
05.06.2020 02:00:00 16,3 14,2 16 9 NE 1009,7 0,0
05.06.2020 01:00:00 16,2 14,3 15 8 NE 1010,2 -
05.06.2020 00:00:00 16,5 14,8 13 7 NE 1010,4 -
04.06.2020 23:00:00 16,7 14,8 11 6 ENE 1010,6 -
04.06.2020 22:00:00 16,8 14,2 13 7 ENE 1010,6 -
04.06.2020 21:00:00 16,8 13,8 8 4 NE 1010,2 -
04.06.2020 20:00:00 17,9 12,9 18 10 ENE 1009,8 0,0
04.06.2020 19:00:00 19,1 12,6 4 2 E 1009,6 -
04.06.2020 18:00:00 19,6 12,8 11 6 ESE 1009,9 -
04.06.2020 17:00:00 19,8 12,9 8 4 E 1010,0 -
04.06.2020 16:00:00 19,5 12,5 18 10 SSE 1010,6 -
04.06.2020 15:00:00 20,0 11,4 11 6 SSE 1010,7 -
04.06.2020 14:00:00 20,2 11,6 15 8 SSE 1010,8 0,0
04.06.2020 13:00:00 21,2 11,8 11 6 ESE 1010,6 -
04.06.2020 12:00:00 19,8 11,5 2 1 ESE 1011,1 -
04.06.2020 11:00:00 20,1 10,2 8 4 SSE 1010,8 -
04.06.2020 10:00:00 19,4 8,9 9 5 SSE 1010,8 -
04.06.2020 09:00:00 19,8 7,5 8 4 ONO 1010,4 -
04.06.2020 08:00:00 19,0 7,0 0 0 N 1010,4 0,0
04.06.2020 07:00:00 18,0 6,4 2 1 ONO 1010,3 -
04.06.2020 06:00:00 17,2 5,7 11 6 NO 1010,3 -
04.06.2020 05:00:00 17,0 3,6 0 0 N 1010,3 -
04.06.2020 04:00:00 17,2 3,7 5 3 NO 1010,5 -
04.06.2020 03:00:00 16,9 4,5 0 0 N 1011,0 -
04.06.2020 02:00:00 16,3 4,9 2 1 ONO 1011,5 0,0
04.06.2020 01:00:00 16,1 7,0 9 5 ONO 1011,8 -
04.06.2020 00:00:00 15,6 12,3 22 12 NO 1012,3 -
03.06.2020 23:00:00 15,8 12,1 8 4 ONO 1012,3 -
03.06.2020 22:00:00 16,0 12,5 11 6 NO 1012,0 -
03.06.2020 21:00:00 16,7 12,6 2 1 ONO 1011,4 -
03.06.2020 20:00:00 17,6 12,0 16 9 SSE 1011,4 -
03.06.2020 19:00:00 18,8 11,6 11 6 ONO 1011,3 -
03.06.2020 18:00:00 19,5 10,4 9 5 O 1011,2 -
03.06.2020 17:00:00 18,8 10,3 13 7 NO 1011,7 -
03.06.2020 16:00:00 17,4 11,2 11 6 NNO 1012,0 -
03.06.2020 15:00:00 19,1 9,5 22 12 ONO 1012,0 -
03.06.2020 14:00:00 19,0 9,4 9 5 ONO 1012,0 0,0
03.06.2020 13:00:00 19,7 10,4 11 6 O 1011,7 -
03.06.2020 12:00:00 19,1 10,6 13 7 O 1011,9 -
03.06.2020 11:00:00 18,8 11,6 13 7 ENE 1012,0 -
03.06.2020 10:00:00 17,9 11,4 18 10 ONO 1011,9 -
03.06.2020 09:00:00 17,0 11,7 13 7 ONO 1012,2 -
03.06.2020 08:00:00 16,3 10,8 15 8 ONO 1012,1 0,0
03.06.2020 07:00:00 15,4 9,9 16 9 NO 1011,9 -
03.06.2020 06:00:00 14,8 9,3 16 9 NO 1011,5 -
03.06.2020 05:00:00 15,1 9,8 21 11 ONO 1011,4 -
03.06.2020 04:00:00 15,1 10,3 5 3 ONO 1011,8 -
03.06.2020 03:00:00 15,0 10,4 16 9 NO 1012,2 -
03.06.2020 02:00:00 15,2 10,8 16 9 NO 1012,7 0,0
03.06.2020 01:00:00 15,3 10,4 21 11 NO 1012,7 -
03.06.2020 00:00:00 15,6 10,5 22 12 ONO 1012,8 -
02.06.2020 23:00:00 15,8 10,7 22 12 ONO 1012,9 -
02.06.2020 22:00:00 15,8 11,3 21 11 NO 1012,6 -
02.06.2020 21:00:00 15,9 11,2 15 8 ONO 1012,4 -
02.06.2020 20:00:00 16,2 10,7 13 7 ONO 1012,5 0,0
02.06.2020 19:00:00 17,1 9,5 24 13 ONO 1012,6 -
02.06.2020 18:00:00 17,6 8,1 22 12 ONO 1012,4 -
02.06.2020 17:00:00 17,5 7,7 13 7 ONO 1012,8 -
02.06.2020 16:00:00 17,6 8,7 21 11 ONO 1013,4 -
02.06.2020 15:00:00 17,7 8,2 26 14 ONO 1013,9 -
02.06.2020 14:00:00 18,2 8,1 4 2 O 1013,9 0,0
02.06.2020 13:00:00 18,0 8,5 9 5 ONO 1014,1 -
02.06.2020 12:00:00 18,1 7,4 22 12 ONO 1014,2 -
02.06.2020 11:00:00 18,3 8,5 8 4 O 1014,0 -
02.06.2020 10:00:00 17,2 8,3 16 9 ONO 1014,2 -
02.06.2020 09:00:00 16,3 7,7 2 1 ONO 1014,5 -
02.06.2020 08:00:00 15,4 4,7 9 5 NO 1014,4 0,0
02.06.2020 07:00:00 15,2 3,9 4 2 NO 1014,1 -
02.06.2020 06:00:00 14,7 4,6 5 3 NO 1014,2 -
02.06.2020 05:00:00 13,4 3,4 9 5 ONO 1014,3 -
02.06.2020 04:00:00 14,6 3,9 9 5 NNO 1014,4 -
02.06.2020 03:00:00 13,8 5,1 11 6 NO 1015,1 -
02.06.2020 02:00:00 14,0 7,9 11 6 NNO 1015,4 0,0
02.06.2020 01:00:00 14,5 10,7 11 6 NNO 1015,7 -
02.06.2020 00:00:00 14,3 10,9 0 0 N 1015,9 -
01.06.2020 23:00:00 14,5 10,7 0 0 N 1015,5 -
01.06.2020 22:00:00 14,3 10,1 0 0 N 1015,3 -
01.06.2020 21:00:00 15,3 10,0 0 0 N 1014,8 -
01.06.2020 20:00:00 15,4 10,1 0 0 N 1014,7 -
01.06.2020 19:00:00 15,2 11,0 0 0 N 1014,9 -
01.06.2020 18:00:00 16,5 10,7 0 0 N 1014,5 -
01.06.2020 17:00:00 16,0 9,4 0 0 N 1015,0 -
01.06.2020 16:00:00 15,9 9,7 4 2 ONO 1015,5 -
01.06.2020 15:00:00 15,7 8,6 2 1 N 1015,8 -
01.06.2020 14:00:00 15,0 9,3 0 0 N 1015,7 -
01.06.2020 13:00:00 13,9 10,7 5 3 ENE 1016,2 -
01.06.2020 12:00:00 13,9 10,1 2 1 S 1016,3 -
01.06.2020 11:00:00 15,0 10,6 4 2 SSO 1015,7 -
01.06.2020 10:00:00 13,8 10,7 2 1 SO 1015,9 -
01.06.2020 09:00:00 13,1 10,8 0 0 N 1016,1 -
01.06.2020 08:00:00 13,6 10,2 0 0 N 1015,5 -
01.06.2020 07:00:00 14,6 9,4 0 0 N 1015,1 -
01.06.2020 06:00:00 14,4 8,9 13 7 NO 1014,8 -
01.06.2020 05:00:00 14,1 8,9 8 4 ONO 1014,8 -
01.06.2020 04:00:00 14,3 9,3 15 8 ONO 1015,2 -
01.06.2020 03:00:00 14,4 7,8 13 7 ONO 1015,2 -
01.06.2020 02:00:00 14,1 8,4 9 5 NNO 1015,3 0,0
01.06.2020 01:00:00 14,2 8,1 0 0 N 1015,4 -
01.06.2020 00:00:00 14,4 8,1 4 2 NO 1015,7 -
31.05.2020 23:00:00 14,7 8,4 0 0 N 1015,9 -
31.05.2020 22:00:00 14,9 8,8 0 0 N 1015,6 -
31.05.2020 21:00:00 15,3 8,9 0 0 N 1015,2 -
31.05.2020 20:00:00 15,0 9,3 0 0 N 1014,9 -
31.05.2020 19:00:00 15,2 9,3 5 3 SE 1014,7 -
31.05.2020 18:00:00 16,3 11,0 8 4 SSE 1014,4 -
31.05.2020 17:00:00 16,6 10,8 9 5 SSE 1014,5 -
31.05.2020 16:00:00 16,5 11,6 9 5 SE 1014,4 -
31.05.2020 15:00:00 15,4 11,4 4 2 S 1014,9 -
31.05.2020 14:00:00 15,8 11,7 16 9 ESE 1015,0 -
31.05.2020 13:00:00 16,4 12,1 5 3 S 1014,8 -
31.05.2020 12:00:00 16,7 10,0 8 4 SSE 1014,7 -
31.05.2020 11:00:00 16,5 9,8 11 6 S 1014,7 -

tt = Temperatura
td = dewpoint
ff = velocità del vento
dd = direzione del vento
ppp = reduced air pressure
rr = precipitazioni

Stazioni seguenti

WeatherPro
AMSI
MeteoEarth